Hourly Data Report for July 31, 2021

CLYDE RIVER A
NUNAVUT
Current Station Operator: NAVCAN

70°29'09.000" N
68°31'01.000" W
26.50 m
2400804
71090
YCY

Download Data

Hourly Data (July 2021)
Hourly Data Report for July 31, 2021
TIME
LST
Temp Definition
°C
Dew Point Definition
°C
Rel Hum Definition
%
Precip. Amount Definition
mm

Wind Dir Definition
10's deg

Wind Spd Definition
km/h
Visibility Definition
km
Stn Press Definition
kPa
Hmdx Definition


Wind Chill Definition


Weather Definition


00:00 4.3 2.8 90 0.0 34 9 16.1 101.08     LegendNANA
01:00 2.9 2.2 95 0.0 25 5 16.1 101.07     LegendNANA
02:00 2.2 1.9 98 0.0 26 5 16.1 101.07     LegendNANA
03:00 2.6 2.2 97 0.0 24 9 16.1 101.06     LegendNANA
04:00 3.0 2.6 97 0.0 25 8 16.1 101.03     LegendNANA
05:00 4.4 3.1 91 0.0   0 16.1 101.03     LegendNANA
06:00 7.1 4.3 82 0.0 25 5 16.1 101.03     LegendNANA
07:00 4.9 3.3 89 0.0 24 5 16.1 101.04     LegendNANA
08:00 8.7 4.2 73 0.0 LegendMM 11 16.1 101.04     LegendNANA
09:00 8.8 4.4 74 0.0 3 9 16.1 101.03     LegendNANA
10:00 8.4 4.8 78 0.0 2 11 16.1 101.01     LegendNANA
11:00 9.2 4.9 75 0.0 1 13 16.1 101.00     LegendNANA
12:00 8.3 4.7 78 0.0 LegendMM 11 16.1 101.01     LegendNANA
13:00 6.5 4.1 84 0.0 13 13 16.1 101.00     LegendNANA
14:00 6.9 4.3 83 0.0 10 15 16.1 101.01     LegendNANA
15:00 6.5 4.1 84 0.0 9 11 16.1 101.00     LegendNANA
16:00 6.4 3.8 83 0.0 9 11 16.1 101.00     LegendNANA
17:00 6.0 3.6 84 0.0 10 11 16.1 101.01     LegendNANA
18:00 4.7 3.0 89 0.0 10 11 16.1 101.01     LegendNANA
19:00 4.7 3.2 90 0.0 5 8 16.1 100.98     LegendNANA
20:00 4.6 3.2 90 0.0 6 9 16.1 100.96     LegendNANA
21:00 4.1 3.0 92 0.0 5 8 16.1 100.97     LegendNANA
22:00 3.9 2.7 92 0.0 3 9 16.1 100.95     LegendNANA
23:00 3.4 2.4 93 0.0 2 9 16.1 100.92     Rain

Notes on Data Quality.

Legend

  • E = Estimated
  • M = Missing
  • NA = Not Available*
  • [empty] = Indicates an unobserved value
Date modified: